TimeEST,TemperatureF,Dew PointF,Humidity,Sea Level PressureIn,VisibilityMPH,Wind Direction,Wind SpeedMPH,Gust SpeedMPH,PrecipitationIn,Events,Conditions,WindDirDegrees,DateUTC
12:53 AM,36.0,34.0,93,29.92,10.0,SW,5.8,-,N/A,,Clear,220,2012-12-19 05:53:00
1:53 AM,39.9,33.1,77,29.93,10.0,WSW,4.6,-,N/A,,Clear,240,2012-12-19 06:53:00
2:53 AM,37.9,33.1,83,29.93,10.0,SW,6.9,-,N/A,,Clear,230,2012-12-19 07:53:00
3:53 AM,43.0,34.0,71,29.94,10.0,WSW,11.5,-,N/A,,Clear,250,2012-12-19 08:53:00
4:53 AM,42.1,33.1,70,29.93,10.0,WSW,9.2,-,N/A,,Clear,240,2012-12-19 09:53:00
5:53 AM,41.0,33.1,73,29.95,10.0,WSW,8.1,-,N/A,,Clear,250,2012-12-19 10:53:00
6:53 AM,39.0,32.0,76,29.98,10.0,West,3.5,-,N/A,,Clear,270,2012-12-19 11:53:00
7:53 AM,39.9,34.0,79,30.01,10.0,Calm,Calm,-,N/A,,Clear,0,2012-12-19 12:53:00
8:53 AM,46.0,34.0,63,30.03,10.0,WSW,5.8,-,N/A,,Clear,250,2012-12-19 13:53:00
9:53 AM,51.1,34.0,52,30.05,10.0,West,8.1,-,N/A,,Clear,260,2012-12-19 14:53:00
10:53 AM,55.0,35.1,47,30.05,10.0,SW,4.6,-,0.02,,Clear,220,2012-12-19 15:53:00
11:53 AM,60.1,34.0,38,30.03,10.0,WNW,5.8,-,N/A,,Clear,290,2012-12-19 16:53:00
12:53 PM,63.0,35.1,35,30.00,10.0,SW,5.8,-,N/A,,Clear,230,2012-12-19 17:53:00
1:53 PM,64.9,35.1,33,29.99,10.0,West,8.1,-,N/A,,Clear,270,2012-12-19 18:53:00
2:53 PM,66.0,35.1,32,29.99,10.0,SW,8.1,-,N/A,,Clear,230,2012-12-19 19:53:00
3:53 PM,66.0,36.0,33,30.00,10.0,SW,11.5,-,N/A,,Clear,220,2012-12-19 20:53:00
4:53 PM,60.1,37.9,44,30.01,10.0,SW,6.9,-,N/A,,Clear,220,2012-12-19 21:53:00
5:53 PM,55.0,39.9,57,30.04,10.0,SW,4.6,-,N/A,,Clear,220,2012-12-19 22:53:00
6:53 PM,54.0,42.1,64,30.06,10.0,SSW,3.5,-,N/A,,Clear,210,2012-12-19 23:53:00
7:53 PM,48.9,41.0,74,30.07,10.0,SSW,3.5,-,N/A,,Clear,210,2012-12-20 00:53:00
8:53 PM,48.9,41.0,74,30.08,10.0,Calm,Calm,-,N/A,,Clear,0,2012-12-20 01:53:00
9:53 PM,45.0,41.0,86,30.09,10.0,SW,3.5,-,N/A,,Clear,220,2012-12-20 02:53:00
10:53 PM,46.0,39.9,79,30.11,10.0,Calm,Calm,-,N/A,,Clear,0,2012-12-20 03:53:00
11:53 PM,46.0,42.1,86,30.11,10.0,Calm,Calm,-,N/A,,Clear,0,2012-12-20 04:53:00